Weather in Novaya Derevnya

Russia / Stavropol Krai     44°31′48″N   41°51′15″E
temp.,
°C
wind,
m/s
gust,
m/s
humid.,
%
clouds,
%
prec.,
mm/h
press.,
hPa
HPBL,
m
24 january, mon
mon2400:00−1sse1291100 0.0 101270
03:00−1sse239696 0.3 101362
06:00−1ese3593100 0.1 1013227
09:000ese3594100 0.6 1015273
12:000se24100100 0.4 1015171
15:000e1110099 0.4 101764
18:00−1ssw1195100 0.0 102075
21:00−1wnw2395100 0.1 1021137
25 january, tue
tue2500:00−1nnw1599100 0.4 1022264
03:00−1wnw3699100 2.6 1023343
06:00−2wnw2498100 1.6 1024195
09:00−2wnw2497100 2.7 1025288
12:00−1n119599 0.6 1025328
15:00−1ene229796 0.9 1025254
18:00−3se2396100 0.1 102548
21:00−3se2592100 0.1 1025107
26 january, wed
wed2600:00−2ese2693100 0.0 1023160
03:00−3ese2791100 0.0 1022135
06:00−4ese2793100 0.0 1021178
09:00−4ese31093100 0.0 1020374
12:00−1ese4785100 0.0 1019668
15:00−1e3686100 0.0 1018670
18:00−2e2494100 0.0 1019122
21:00−3e1297100 0.0 101994
27 january, thu
thu2700:00−4ssw1198100 0.1 101929
03:00−4sw1297100 0.4 101955
06:00−4wsw129797 0.1 101972
09:00−3wnw2596100 0.3 1020283
12:00−2wnw3490100 0.1 1019510
15:00−3nw3487100 0.1 1020668
18:00−4wnw2594100 0.1 1021323
21:00−5wnw239691 0.1 1022137
28 january, fri
fri2800:00−8sw239770 0.0 102455
03:00−9ssw339544 0.0 102443
06:00−9ssw339398 0.0 102433
09:00−7s348752 0.0 102482
12:00−2se11715 0.0 1023217
15:00−1ene11775 0.0 1023168
18:00−6s228710 0.0 102417
21:00−6s36895 0.0 102379